Miscellaneous Local Product
Issued by NWS North Platte, NE

Home | Current Version | Previous Version | Text Only | Print | Product List | Glossary On
Versions: 1 2 3 4 5 6 7 8 9 10 11 12 13 14 15 16 17 18 19 20 21 22 23 24 25 26 27 28 29 30 31 32 33 34 35 36 37 38 39 40 41 42 43 44 45 46 47 48 49 50
000
AXUS43 KLBF 280610
MISLBF


WESTERN AND NORTH CENTRAL NEBRASKA HOURLY WEATHER ROUNDUP
NATIONAL WEATHER SERVICE NORTH PLATTE NE
1200 AM CST FRI NOV 28 2014

***STATIONS NOT REPORTING VARIABLES SUCH AS SKY/WEATHER OR
PRESSURE ARE PROVIDED BY THE NEBRASKA DEPARTMENT OF
ROADS...RAWS...AND APRS NETWORKS...AND ARE NOT UNDER
NATIONAL WEATHER SERVICE QUALITY CONTROL***

...OBSERVATIONS IN AND NEAR THE EASTERN PANHANDLE OF NEBRASKA...

CITY           SKY/WX    TMP DP  RH WIND       PRES   REMARKS
PINE RIDGE     CLEAR     37  29  72 SW9       29.91S WCI  30
CHADRON        MOCLDY   N/A N/A N/A SW6       29.91F
ALLIANCE       PTCLDY    30  24  78 W9        29.95S WCI  22
SIDNEY         CLEAR     35  26  69 W12       30.00F WCI  27
WHITECLAY        N/A     30  25  80 E10         N/A  WCI  21
CRESCENT LAKE    N/A     43  27  52 W6          N/A
LISCO            N/A     29  24  81 CALM        N/A
BIG SPRINGS      N/A     33  29  86 W6          N/A  WCI  27
$$

...OBSERVATIONS IN NORTH CENTRAL NEBRASKA...

CITY           SKY/WX    TMP DP  RH WIND       PRES   REMARKS
VALENTINE      CLEAR     33  28  81 W6        29.87F WCI  28
THEDFORD       CLEAR     35  27  73 SW3       29.91F
AINSWORTH      CLEAR     34  24  66 SW10      29.88F WCI  26
O`NEILL        CLEAR     30  21  68 S15       29.91F WCI  19
ORD            PTCLDY    22  15  75 CALM      29.97F
BROKEN BOW     CLEAR     21  15  78 CALM      29.95F
BROWNLEE         N/A     36  27  67 SW6         N/A  WCI  32
SPRINGVIEW       N/A     30  21  69 CALM        N/A
BREWSTER         N/A     29  22  73 CALM        N/A
SARGENT          N/A     23  17  78 CALM        N/A
COMSTOCK         N/A     30  23  74 S5          N/A  WCI  25
CHAMBERS         N/A     27  14  58 S9          N/A  WCI  18
EWING            N/A     26  20  77 CALM        N/A
$$

...OBSERVATIONS IN SOUTHWEST NEBRASKA AND FAR NORTHEAST COLORADO...

CITY           SKY/WX    TMP DP  RH WIND       PRES   REMARKS
WRAY           FAIR      36  28  73 SW7       30.03S WCI  30
HOLYOKE        FAIR      34  28  80 W12       30.01F WCI  25
IMPERIAL       CLEAR     39  26  59 W13       29.99F WCI  31
OGALLALA       PTCLDY    32  30  90 W5        29.98F WCI  28
NORTH PLATTE   CLEAR     21  17  84 CALM      29.96F
MCCOOK         CLEAR     36  24  62 W13       29.97F WCI  27
LEXINGTON      CLEAR     22  17  81 CALM      29.97S
PAXTON           N/A     33  29  86 CALM        N/A
BRADY            N/A     24  17  73 CALM        N/A
GOTHENBURG       N/A     26  17  70 CALM        N/A
CALLAWAY         N/A     27  21  77 CALM        N/A
$$

...NORTH PLATTE AREA...

CITY           SKY/WX    TMP DP  RH WIND       PRES   REMARKS
AIRPORT        CLEAR     21  17  84 CALM      29.96F
DOWNTOWN         N/A     31  25  79 CALM        N/A
$$

...SOME WEATHER OBSERVATIONS FROM AROUND THE REGION...

CITY           SKY/WX    TMP DP  RH WIND       PRES   REMARKS
DENVER         PTCLDY    45  18  34 S8        30.07F
LARAMIE        PTCLDY    42  20  41 SW17      30.15F
CHEYENNE       CLEAR     50  20  30 W29G39    30.03F
SCOTTSBLUFF    CLEAR     32  26  78 E6        29.97F WCI  26
RAPID CITY     MOCLDY    36  26  67 S3        29.84F
PIERRE         PTCLDY    20  16  84 CALM      29.84F
WINNER         FAIR      41  26  55 SW10      29.84F
SIOUX FALLS    CLOUDY    18  11  74 S16       30.00F WCI   3
OMAHA          CLEAR     25  18  74 SE17      30.14F WCI  12
GRAND ISLAND   CLEAR     28  18  66 S9        29.99F WCI  19
KANSAS CITY    CLEAR     31  23  72 SE15      30.22F WCI  20
WICHITA        CLEAR     37  23  56 S14       30.14F WCI  28
HAYS           CLEAR     36  19  51 S7        30.03F WCI  30
LIBERAL        PTCLDY    39  25  56 S9        30.09F WCI  33
GOODLAND       CLEAR     41  26  55 W8        30.04S
$$



USA.gov is the U.S. government's official web portal to all federal, state and local government web resources and services.